Regional Weather Roundup
Issued by NWS Northern Indiana

Home | Current Version | Previous Version | Text Only | Print | Product List | Glossary Off
Versions: 1 2 3 4 5 6 7 8 9 10 11 12 13 14 15 16 17 18 19 20 21 22 23 24 25 26 27 28 29 30 31 32 33 34 35 36 37 38 39 40 41 42 43 44 45 46 47 48 49 50

608
ASUS43 KIWX 240810
RWRIWX

KIWX WEATHER ROUNDUP
NATIONAL WEATHER SERVICE NORTHERN INDIANA
300 AM EST SAT FEB 24 2018

NOTE: "FAIR" INDICATES FEW OR NO CLOUDS BELOW 12,000 FEET WITH NO
SIGNIFICANT WEATHER AND/OR OBSTRUCTIONS TO VISIBILITY.

* THESE STATIONS ARE NOT UNDER NWS QUALITY CONTROL. THEY ALSO MAY NOT
  REPORT WEATHER SUCH AS PRECIPITATION OR FOG.

INZ001>027-240900-
NORTHERN INDIANA

CITY           SKY/WX    TMP DP  RH WIND       PRES   REMARKS
GARY*          CLOUDY    36  32  85 N7        30.24S
VALPARAISO     CLOUDY    38  33  82 NE7       30.22F
MICHIGAN CITY* FAIR      34  32  93 NE3       30.24S
LAPORTE*       CLOUDY    36  32  87 NE7       30.23R
SOUTH BEND     CLOUDY    35  30  82 N8        30.23F WCI  29
GOSHEN         CLOUDY    37  32  82 N8        30.23F
MONTICELLO*    DRIZZLE   37  34  92 NE5       30.23R
LOGANSPORT*    CLOUDY    36  34  93 N6        30.23S
ROCHESTER*     CLOUDY    37  36  93 NE6       30.22F
WARSAW*        CLOUDY    36  32  87 E6        30.22F
AUBURN*        CLOUDY    36  34  93 N6        30.23S
FORT WAYNE     LGT RAIN  40  38  93 NE6       30.23S FOG
HUNTINGTON*    DRIZZLE   38  37  96 NE7       30.22F
PERU/GRISSOM   CLOUDY    37  37 100 NE5       30.21F
MARION*        LGT RAIN  38  38  97 CALM      30.22F

$$
INZ028>050-240900-
CENTRAL INDIANA

CITY           SKY/WX    TMP DP  RH WIND       PRES   REMARKS
LAFAYETTE      MIX PCPN  37  35  92 NE3       30.23S
KOKOMO*        LGT RAIN  39  38  96 NE3       30.22F FOG
MUNCIE*        LGT RAIN  43  40  89 NE8       30.21F FOG
INDIANAPOLIS   LGT RAIN  43  41  93 NE8       30.19F

$$
MIZ043>046-050>051-056>058-064>065-071>073-077>080-240900-
SOUTHWEST LOWER MICHIGAN

CITY           SKY/WX    TMP DP  RH WIND       PRES   REMARKS
BATTLE CREEK   CLOUDY    35  29  78 N6        30.23F WCI  30
BENTON HARBOR  CLOUDY    36  30  79 NE6       30.22F
COLDWATER*     CLOUDY    36  34  92 N7        30.21F
HILLSDALE*     CLOUDY    34  32  93 N9        30.19F WCI  26
HOLLAND        FAIR      34  28  79 N5        30.25F WCI  30
GRAND RAPIDS   CLOUDY    34  28  79 N7        30.24F WCI  28
KALAMAZOO      CLOUDY    36  29  75 N9        30.23F
STURGIS*       CLOUDY    37  33  86 N7        30.21F
THREE RIVERS*  CLOUDY    37  32  84 N3        30.23F

$$
OHZ001>008-015>018-024>025-240900-
NORTHWEST OHIO

CITY           SKY/WX    TMP DP  RH WIND       PRES   REMARKS
WAUSEON*       CLOUDY    39  39 100 N7        30.24R
DEFIANCE       CLOUDY    39  35  86 N5        30.25R
FINDLAY        CLOUDY    44  38  79 NW6       30.22R
TOLEDO EXPRESS CLOUDY    40  38  93 N7        30.23R
TOLEDO METCALF CLOUDY    41  36  82 N6        30.24R
LIMA           CLOUDY    43  42  97 NW5       30.23R

$$
AND FOR LAKE MICHIGAN COASTAL AND OPEN LAKE BUOY OBSERVATIONS

STATION/POSITION TEMP    WIND        PRES    VSBY  WAVE
                 AIR SEA DIR/SP/G                  HT/PER
                 (F)     (DEG/KT/KT) (MB)    (MI)  (FT/S)
CALUMET HARBOR    34     350/  7/ 12 1023.2R
MICHIGAN CITY     34      10/ 11/ 12   N/A
BURNS HARBOR      34      20/  9/ 13 1024.0
SAINT JOSEPH      36      40/  4/  8 1024.4

$$
&&




USA.gov is the U.S. government's official web portal to all federal, state and local government web resources and services.